• In Moldova, Republic
  • List of Countries
  • For 7 days
  • Water Temperature
  • Satellite Maps
  • Weather Map
  • Weather Widgets
  • user-avatar
    Login

    Hourly Weather Perth

    Today, 27 May, Sunday

    Time Temperature Precipitation Wind Pressure Humidity
    00:00 +15°C° 0.1 mm 4 mps 759 mmHg 84%
    01:00 +15°C° 0.1 mm 4 mps 759 mmHg 84%
    02:00 +16°C° 0 mm 5 mps 759 mmHg 85%
    03:00 +16°C° 0.1 mm 5 mps 759 mmHg 84%
    04:00 +16°C° 0.1 mm 5 mps 759 mmHg 84%
    05:00 +17°C° 0.1 mm 5 mps 759 mmHg 83%
    06:00 +17°C° 0.1 mm 5 mps 759 mmHg 82%
    07:00 +17°C° 0.1 mm 6 mps 759 mmHg 82%
    08:00 +17°C° 0.1 mm 6 mps 760 mmHg 81%
    09:00 +19°C° 0.2 mm 6 mps 760 mmHg 76%
    10:00 +20°C° 0.2 mm 7 mps 760 mmHg 72%
    11:00 +21°C° 0.2 mm 8 mps 760 mmHg 67%
    12:00 +21°C° 0.2 mm 8 mps 760 mmHg 66%
    13:00 +21°C° 0.2 mm 8 mps 760 mmHg 65%
    14:00 +21°C° 0.2 mm 8 mps 759 mmHg 64%
    15:00 +20°C° 0.3 mm 8 mps 760 mmHg 68%
    16:00 +20°C° 0.3 mm 7 mps 760 mmHg 71%
    17:00 +18°C° 0.3 mm 7 mps 760 mmHg 74%
    18:00 +17°C° 0.1 mm 6 mps 761 mmHg 76%
    19:00 +16°C° 0.1 mm 6 mps 762 mmHg 77%
    20:00 +16°C° 0.1 mm 5 mps 762 mmHg 79%
    21:00 +15°C° 0 mm 5 mps 763 mmHg 79%
    22:00 +15°C° 0 mm 5 mps 763 mmHg 79%
    23:00 +14°C° 0 mm 5 mps 763 mmHg 79%

    Tomorrow, 28 May, Monday

    Time Temperature Precipitation Wind Pressure Humidity
    00:00 +14°C° 0 mm 4 mps 764 mmHg 78%
    01:00 +14°C° 0 mm 4 mps 764 mmHg 78%
    02:00 +13°C° 0 mm 4 mps 764 mmHg 78%
    03:00 +13°C° 0 mm 4 mps 764 mmHg 77%
    04:00 +13°C° 0 mm 3 mps 765 mmHg 76%
    05:00 +12°C° 0 mm 3 mps 765 mmHg 75%
    06:00 +12°C° 0 mm 3 mps 765 mmHg 73%
    07:00 +13°C° 0 mm 2 mps 766 mmHg 72%
    08:00 +14°C° 0 mm 2 mps 766 mmHg 70%
    09:00 +15°C° 0 mm 2 mps 766 mmHg 63%
    10:00 +17°C° 0 mm 2 mps 767 mmHg 57%
    11:00 +18°C° 0 mm 2 mps 767 mmHg 50%
    12:00 +18°C° 0 mm 2 mps 767 mmHg 50%
    13:00 +19°C° 0 mm 2 mps 766 mmHg 50%
    14:00 +19°C° 0 mm 2 mps 766 mmHg 50%
    15:00 +18°C° 0.1 mm 2 mps 766 mmHg 54%
    16:00 +17°C° 0.1 mm 2 mps 766 mmHg 58%
    17:00 +17°C° 0.1 mm 2 mps 767 mmHg 62%
    18:00 +16°C° 0 mm 2 mps 767 mmHg 66%
    19:00 +15°C° 0 mm 1 mps 767 mmHg 71%
    20:00 +14°C° 0 mm 1 mps 768 mmHg 75%
    21:00 +14°C° 0 mm 1 mps 768 mmHg 76%
    22:00 +13°C° 0 mm 1 mps 768 mmHg 78%
    23:00 +13°C° 0 mm 1 mps 768 mmHg 80%

    Day after tomorrow, 29 May, Tuesday

    Time Temperature Precipitation Wind Pressure Humidity
    00:00 +13°C° 0 mm 1 mps 768 mmHg 80%
    01:00 +12°C° 0 mm 2 mps 768 mmHg 81%
    02:00 +12°C° 0 mm 2 mps 768 mmHg 81%
    03:00 +12°C° 0 mm 2 mps 768 mmHg 81%
    04:00 +12°C° 0 mm 2 mps 768 mmHg 81%
    05:00 +12°C° 0 mm 2 mps 768 mmHg 81%
    06:00 +12°C° 0 mm 2 mps 768 mmHg 79%
    07:00 +12°C° 0 mm 2 mps 768 mmHg 76%
    08:00 +11°C° 0 mm 3 mps 769 mmHg 74%
    09:00 +13°C° 0 mm 3 mps 769 mmHg 64%
    10:00 +16°C° 0 mm 3 mps 769 mmHg 55%
    11:00 +19°C° 0 mm 3 mps 769 mmHg 45%
    12:00 +19°C° 0 mm 2 mps 768 mmHg 42%
    13:00 +20°C° 0 mm 2 mps 768 mmHg 39%
    14:00 +21°C° 0 mm 2 mps 767 mmHg 37%
    15:00 +20°C° 0 mm 2 mps 767 mmHg 39%
    16:00 +20°C° 0 mm 1 mps 767 mmHg 42%
    17:00 +19°C° 0 mm 1 mps 767 mmHg 45%
    18:00 +17°C° 0 mm 2 mps 767 mmHg 47%
    19:00 +16°C° 0 mm 2 mps 767 mmHg 49%
    20:00 +15°C° 0 mm 2 mps 768 mmHg 52%
    21:00 +13°C° 0 mm 3 mps 768 mmHg 51%
    22:00 +13°C° 0 mm 3 mps 768 mmHg 51%
    23:00 +13°C° 0 mm 3 mps 768 mmHg 51%

    30 May, Wednesday

    Time Temperature Precipitation Wind Pressure Humidity
    00:00 +12°C° 0 mm 3 mps 767 mmHg 50%
    01:00 +12°C° 0 mm 4 mps 767 mmHg 50%
    02:00 +12°C° 0 mm 4 mps 767 mmHg 49%
    03:00 +12°C° 0 mm 4 mps 767 mmHg 48%
    04:00 +12°C° 0 mm 4 mps 766 mmHg 48%
    05:00 +12°C° 0 mm 5 mps 766 mmHg 47%
    06:00 +12°C° 0 mm 5 mps 766 mmHg 47%
    07:00 +12°C° 0 mm 5 mps 766 mmHg 47%
    08:00 +13°C° 0 mm 5 mps 766 mmHg 47%
    09:00 +15°C° 0 mm 5 mps 766 mmHg 43%
    10:00 +17°C° 0 mm 5 mps 765 mmHg 40%
    11:00 +20°C° 0 mm 6 mps 765 mmHg 36%
    12:00 +21°C° 0 mm 5 mps 764 mmHg 34%
    13:00 +22°C° 0 mm 5 mps 763 mmHg 33%
    14:00 +23°C° 0 mm 4 mps 762 mmHg 31%
    15:00 +22°C° 0 mm 4 mps 762 mmHg 35%
    16:00 +21°C° 0 mm 3 mps 761 mmHg 38%
    17:00 +20°C° 0 mm 2 mps 761 mmHg 42%
    18:00 +19°C° 0 mm 2 mps 761 mmHg 43%
    19:00 +18°C° 0 mm 3 mps 761 mmHg 44%
    20:00 +17°C° 0 mm 3 mps 761 mmHg 45%
    21:00 +17°C° 0 mm 3 mps 761 mmHg 45%
    22:00 +16°C° 0 mm 3 mps 761 mmHg 45%
    23:00 +16°C° 0 mm 3 mps 760 mmHg 45%

    31 May, Thursday

    Time Temperature Precipitation Wind Pressure Humidity
    00:00 +15°C° 0 mm 4 mps 760 mmHg 46%
    01:00 +15°C° 0 mm 4 mps 759 mmHg 47%
    02:00 +15°C° 0 mm 4 mps 759 mmHg 47%
    03:00 +15°C° 0 mm 4 mps 758 mmHg 47%
    04:00 +15°C° 0 mm 4 mps 758 mmHg 48%
    05:00 +15°C° 0 mm 4 mps 757 mmHg 48%
    06:00 +15°C° 0 mm 5 mps 757 mmHg 48%
    07:00 +16°C° 0 mm 5 mps 757 mmHg 49%
    08:00 +16°C° 0 mm 5 mps 758 mmHg 49%
    09:00 +17°C° 0.1 mm 6 mps 757 mmHg 52%
    10:00 +20°C° 0.1 mm 6 mps 757 mmHg 55%
    11:00 +21°C° 0.1 mm 7 mps 757 mmHg 58%
    12:00 +20°C° 1.2 mm 7 mps 757 mmHg 65%
    13:00 +18°C° 1.2 mm 8 mps 757 mmHg 72%
    14:00 +17°C° 1.2 mm 8 mps 757 mmHg 79%
    15:00 +16°C° 1.2 mm 7 mps 757 mmHg 80%
    16:00 +15°C° 1.2 mm 5 mps 758 mmHg 82%
    17:00 +13°C° 1.2 mm 4 mps 759 mmHg 84%
    18:00 +13°C° 0.1 mm 4 mps 760 mmHg 84%
    19:00 +13°C° 0.1 mm 5 mps 760 mmHg 84%
    20:00 +12°C° 0.1 mm 5 mps 761 mmHg 84%
    21:00 +12°C° 0 mm 5 mps 762 mmHg 83%
    22:00 +10°C° 0 mm 5 mps 762 mmHg 81%
    23:00 +11°C° 0 mm 4 mps 763 mmHg 80%

    1 June, Friday

    Time Temperature Precipitation Wind Pressure Humidity
    00:00 +10°C° 0 mm 4 mps 763 mmHg 80%
    01:00 +10°C° 0 mm 4 mps 763 mmHg 79%
    02:00 +8°C° 0 mm 4 mps 763 mmHg 79%
    03:00 +8°C° 0 mm 4 mps 764 mmHg 79%
    04:00 +7°C° 0 mm 4 mps 764 mmHg 80%
    05:00 +7°C° 0 mm 4 mps 765 mmHg 81%
    06:00 +7°C° 0 mm 4 mps 765 mmHg 81%
    07:00 +7°C° 0 mm 4 mps 766 mmHg 80%
    08:00 +7°C° 0 mm 4 mps 766 mmHg 80%
    09:00 +10°C° 0 mm 4 mps 766 mmHg 70%
    10:00 +12°C° 0 mm 4 mps 766 mmHg 60%
    11:00 +13°C° 0 mm 3 mps 767 mmHg 51%
    12:00 +14°C° 0 mm 3 mps 766 mmHg 46%
    13:00 +16°C° 0 mm 3 mps 766 mmHg 42%
    14:00 +17°C° 0 mm 3 mps 766 mmHg 38%
    15:00 +16°C° 0 mm 3 mps 766 mmHg 41%
    16:00 +15°C° 0 mm 2 mps 766 mmHg 45%
    17:00 +14°C° 0 mm 2 mps 767 mmHg 48%
    18:00 +13°C° 0 mm 2 mps 767 mmHg 51%
    19:00 +12°C° 0 mm 2 mps 768 mmHg 55%
    20:00 +10°C° 0 mm 2 mps 768 mmHg 58%
    21:00 +10°C° 0 mm 2 mps 768 mmHg 60%
    22:00 +10°C° 0 mm 2 mps 768 mmHg 61%
    23:00 +9°C° 0 mm 2 mps 768 mmHg 62%
    Show more